Location: Mahannah Oil Field
(37.4664°N, 96.6003°W)
Time: 20:19:58
(UTC+00:00)

N. Korean satellite - Visible Passes

Search period start: 29 November 2020 00:00
Search period end: 09 December 2020 00:00
Orbit: 452 x 504 km, 97.2° (Epoch: 29 November)

Date Brightness Start Highest point End Pass type
(mag) Time Alt. Az. Time Alt. Az. Time Alt. Az.
29 Nov 8.7 11:21:06 10° NE 11:24:16 28° E 11:27:28 10° SSE visible
30 Nov 9.9 10:56:01 10° ENE 10:57:50 13° E 10:59:40 10° ESE visible
30 Nov 7.3 12:27:59 10° N 12:31:14 32° WNW 12:34:30 10° SW visible
01 Dec 6.5 12:01:23 10° N 12:05:01 75° W 12:08:40 10° SSW visible
02 Dec 9.8 00:09:19 10° SW 00:11:12 14° W 00:13:06 10° WNW visible
02 Dec 7.7 11:35:11 10° NNE 11:38:42 45° E 11:42:13 10° S visible
02 Dec 8.6 23:41:40 10° SSW 23:44:44 31° W 23:47:51 10° NNW visible
03 Dec 9.3 11:09:30 10° NE 11:12:17 20° E 11:15:05 10° SE visible
03 Dec 7.8 12:42:41 10° NNW 12:45:30 21° WNW 12:48:20 10° WSW visible
04 Dec 6.8 12:15:48 10° N 12:19:19 46° WNW 12:22:50 10° SSW visible
05 Dec 6.8 11:49:21 10° NNE 11:53:01 74° ESE 11:56:42 10° S visible
05 Dec 9.5 23:56:28 10° SW 23:59:04 20° W 00:01:42 10° NW visible
06 Dec 8.5 11:23:20 10° NNE 11:26:38 31° E 11:29:56 10° SSE visible
06 Dec 8.3 12:57:36 10° NW 12:59:40 15° WNW 13:01:44 10° WSW visible
07 Dec 9.8 10:58:01 10° ENE 11:00:08 15° E 11:02:15 10° SE visible
07 Dec 7.4 12:30:16 10° N 12:33:30 30° WNW 12:36:44 10° SW visible
08 Dec 6.5 12:03:34 10° N 12:07:14 69° WNW 12:10:54 10° SSW visible
